Powrót do katalogu

COSMOS 1470

AktywnyMilitariaPO
NORAD 14147·PAYLOAD·🇷🇺 Russia

Wystrzelony Jun 23, 1983 z Plesetsk Cosmodrome

Loading…

Następne Przeloty (najbliższe 24 godziny)

TLE

ŚwieżeSource: Space-Track

Epoka: Sep 14, 2026, 15:05 UTC

1 14147U 83061A   26257.62873211  .00014806  00000-0  26237-3 0  9999
2 14147  82.4628 280.6135 0007409  52.2712 307.9210 15.50087091116942

Śledź COSMOS 1470 w czasie rzeczywistym z AllMySat

Download on the App Store